Location: Bergnershof
(48.9468°N, 10.9431°E)
Time: 16:46:50
(UTC+00:00)

Cosmos 2333 Rocket - Pass Details

Date: 25 June 2021
Orbit: 841 x 861 km, 70.8° (Epoch: 24 July)

Event Time Altitude Azimuth Distance (km) Brightness Sun altitude
Rises 21:00:05 0° 234° (SW) 3,424 5.3 -11.3°
Reaches altitude 10° 21:02:44 10° 243° (WSW) 2,488 4.7 -11.6°
Maximum altitude 21:08:00 37° 310° (NW) 1,309 3.9 -12.0°
Drops below altitude 10° 21:13:17 10° 17° (NNE) 2,489 5.3 -12.4°
Sets 21:15:56 0° 26° (NNE) 3,425 5.9 -12.6°
